QPF
0.00 0.00 0.00 0.00 0.00 0.00 0.00 0.00 0.00 0.00 0.00 0.00 0.00 0.00 0.00 0.01 0.01 0.01 0.01 0.02 0.03 0.04 0.04 0.04 0.05 0.05 0.05 0.07 0.08 0.07 0.09 0.11 0.11 0.10 0.08 0.04 0.03 0.03 0.02 0.02 0.02 0.03 0.04 0.04
0.00 0.00 0.00 0.00 0.00 0.00 0.00 0.00 0.00 0.00 0.00 0.00 0.00 0.00 0.00 0.00 0.01 0.01 0.02 0.02 0.03 0.03 0.03 0.03 0.04 0.04 0.05 0.06 0.06 0.07 0.07 0.08 0.08 0.08 0.05 0.05 0.05 0.03 0.02 0.01 0.02 0.03 0.03 0.04
0.00 0.00 0.00 0.00 0.00 0.00 0.00 0.00 0.00 0.00 0.00 0.00 0.00 0.01 0.01 0.01 0.02 0.02 0.02 0.03 0.03 0.02 0.03 0.03 0.04 0.05 0.06 0.05 0.05 0.04 0.04 0.06 0.09 0.11 0.09 0.05 0.05 0.05 0.04 0.03 0.02 0.03 0.02 0.03
0.00 0.00 0.00 0.00 0.00 0.00 0.00 0.00 0.00 0.00 0.00 0.00 0.01 0.01 0.01 0.01 0.01 0.01 0.02 0.02 0.02 0.02 0.03 0.03 0.04 0.04 0.05 0.05 0.05 0.04 0.04 0.04 0.05 0.08 0.10 0.07 0.05 0.04 0.04 0.03 0.03 0.04 0.04 0.04
0.00 0.00 0.00 0.00 0.00 0.00 0.00 0.00 0.00 0.00 0.00 0.00 0.01 0.01 0.01 0.01 0.01 0.01 0.01 0.02 0.01 0.02 0.02 0.03 0.03 0.05 0.05 0.04 0.03 0.03 0.04 0.04 0.04 0.05 0.07 0.07 0.07 0.05 0.03 0.03 0.03 0.03 0.04 0.04
0.00 0.00 0.00 0.00 0.00 0.00 0.00 0.00 0.00 0.00 0.00 0.00 0.00 0.01 0.01 0.00 0.00 0.00 0.00 0.01 0.01 0.01 0.01 0.02 0.02 0.04 0.04 0.04 0.04 0.04 0.04 0.04 0.04 0.05 0.06 0.06 0.06 0.05 0.03 0.02 0.02 0.03 0.03 0.03
0.00 0.00 0.00 0.00 0.00 0.00 0.00 0.00 0.00 0.00 0.00 0.00 0.00 0.00 0.00 0.00 0.00 0.00 0.00 0.01 0.01 0.01 0.01 0.01 0.02 0.02 0.02 0.02 0.04 0.05 0.06 0.06 0.06 0.06 0.06 0.06 0.06 0.05 0.04 0.03 0.02 0.01 0.02 0.02
0.00 0.00 0.00 0.00 0.00 0.00 0.00 0.00 0.00 0.00 0.00 0.00 0.00 0.00 0.00 0.00 0.00 0.00 0.00 0.01 0.01 0.02 0.01 0.02 0.02 0.01 0.01 0.02 0.02 0.04 0.06 0.08 0.08 0.07 0.07 0.06 0.05 0.04 0.04 0.04 0.03 0.02 0.02 0.02
0.00 0.00 0.00 0.00 0.00 0.00 0.00 0.00 0.00 0.00 0.00 0.00 0.01 0.01 0.01 0.01 0.01 0.02 0.02 0.01 0.01 0.01 0.01 0.01 0.01 0.01 0.02 0.02 0.03 0.03 0.05 0.06 0.06 0.06 0.06 0.06 0.06 0.06 0.05 0.06 0.05 0.03 0.03 0.02
0.00 0.00 0.00 0.00 0.00 0.00 0.00 0.00 0.00 0.01 0.01 0.01 0.01 0.01 0.01 0.01 0.02 0.08 0.08 0.04 0.02 0.01 0.01 0.01 0.01 0.01 0.02 0.03 0.05 0.05 0.04 0.06 0.06 0.05 0.05 0.05 0.05 0.05 0.05 0.05 0.05 0.03 0.02 0.02
0.00 0.00 0.00 0.00 0.00 0.00 0.00 0.00 0.00 0.01 0.00 0.00 0.01 0.02 0.02 0.01 0.01 0.04 0.08 0.08 0.06 0.03 0.02 0.03 0.02 0.02 0.03 0.04 0.04 0.05 0.06 0.05 0.05 0.05 0.05 0.04 0.04 0.04 0.05 0.05 0.05 0.03 0.02 0.03
0.00 0.00 0.00 0.00 0.00 0.00 0.00 0.00 0.00 0.01 0.00 0.00 0.00 0.01 0.01 0.01 0.01 0.02 0.04 0.07 0.09 0.07 0.05 0.04 0.03 0.01 0.02 0.02 0.03 0.04 0.07 0.07 0.06 0.05 0.04 0.04 0.04 0.05 0.05 0.04 0.04 0.03 0.02 0.02
0.00 0.00 0.00 0.00 0.00 0.00 0.00 0.00 0.00 0.00 0.00 0.01 0.01 0.01 0.01 0.01 0.02 0.02 0.03 0.04 0.04 0.05 0.05 0.04 0.03 0.02 0.02 0.02 0.02 0.02 0.07 0.09 0.07 0.06 0.05 0.04 0.04 0.04 0.04 0.03 0.04 0.04 0.03 0.03
0.00 0.00 0.00 0.00 0.00 0.00 0.00 0.00 0.00 0.01 0.01 0.01 0.01 0.01 0.02 0.02 0.02 0.03 0.04 0.04 0.04 0.05 0.06 0.06 0.04 0.03 0.03 0.02 0.02 0.02 0.05 0.11 0.10 0.08 0.07 0.05 0.03 0.03 0.04 0.04 0.04 0.04 0.05 0.04
0.00 0.00 0.00 0.00 0.00 0.00 0.00 0.00 0.01 0.01 0.02 0.02 0.02 0.01 0.02 0.02 0.02 0.03 0.03 0.03 0.04 0.06 0.07 0.06 0.04 0.02 0.01 0.02 0.02 0.04 0.09 0.13 0.14 0.11 0.08 0.06 0.05 0.05 0.04 0.04 0.04 0.04 0.05 0.04
0.00 0.00 0.00 0.00 0.00 0.00 0.01 0.01 0.01 0.01 0.01 0.02 0.02 0.02 0.02 0.02 0.02 0.03 0.03 0.03 0.03 0.03 0.03 0.03 0.02 0.02 0.02 0.02 0.02 0.04 0.10 0.14 0.14 0.14 0.11 0.08 0.07 0.07 0.05 0.04 0.03 0.04 0.04 0.03
0.00 0.00 0.00 0.00 0.00 0.00 0.01 0.00 0.01 0.01 0.01 0.01 0.01 0.01 0.02 0.02 0.03 0.04 0.03 0.03 0.02 0.02 0.02 0.02 0.02 0.03 0.03 0.02 0.03 0.04 0.06 0.10 0.12 0.13 0.13 0.11 0.09 0.08 0.06 0.05 0.04 0.04 0.04 0.03
0.01 0.00 0.01 0.01 0.01 0.01 0.01 0.00 0.01 0.02 0.01 0.01 0.01 0.02 0.01 0.02 0.02 0.03 0.03 0.02 0.02 0.02 0.02 0.02 0.02 0.02 0.02 0.02 0.03 0.04 0.05 0.07 0.08 0.10 0.12 0.13 0.12 0.09 0.07 0.06 0.05 0.05 0.03 0.03
0.01 0.01 0.02 0.01 0.01 0.01 0.01 0.01 0.01 0.02 0.01 0.01 0.02 0.03 0.03 0.03 0.02 0.02 0.02 0.03 0.03 0.02 0.02 0.02 0.02 0.03 0.02 0.02 0.03 0.03 0.05 0.05 0.05 0.07 0.10 0.12 0.12 0.09 0.07 0.06 0.05 0.04 0.03 0.02
0.02 0.02 0.01 0.01 0.02 0.01 0.01 0.01 0.01 0.02 0.02 0.02 0.02 0.03 0.03 0.02 0.02 0.03 0.02 0.02 0.02 0.02 0.01 0.01 0.02 0.02 0.02 0.02 0.03 0.03 0.04 0.04 0.05 0.06 0.08 0.09 0.08 0.08 0.07 0.04 0.03 0.03 0.03 0.03
0.02 0.02 0.02 0.02 0.02 0.01 0.01 0.01 0.01 0.02 0.02 0.03 0.02 0.03 0.04 0.03 0.02 0.03 0.03 0.02 0.02 0.02 0.02 0.02 0.03 0.04 0.04 0.03 0.03 0.03 0.03 0.03 0.04 0.05 0.05 0.05 0.05 0.05 0.06 0.05 0.04 0.02 0.02 0.02
0.02 0.02 0.02 0.02 0.02 0.01 0.01 0.01 0.02 0.03 0.02 0.04 0.04 0.04 0.05 0.05 0.04 0.03 0.03 0.04 0.03 0.02 0.02 0.02 0.02 0.05 0.06 0.05 0.05 0.04 0.03 0.03 0.04 0.04 0.04 0.04 0.03 0.03 0.03 0.04 0.04 0.03 0.02 0.02
0.03 0.02 0.02 0.02 0.02 0.01 0.02 0.03 0.04 0.05 0.05 0.04 0.04 0.05 0.07 0.06 0.04 0.03 0.03 0.03 0.03 0.03 0.04 0.04 0.04 0.05 0.06 0.06 0.08 0.07 0.05 0.05 0.05 0.04 0.04 0.04 0.03 0.03 0.03 0.03 0.03 0.03 0.03 0.03
0.02 0.02 0.02 0.02 0.03 0.03 0.04 0.04 0.03 0.04 0.05 0.05 0.04 0.06 0.08 0.07 0.05 0.05 0.05 0.04 0.03 0.03 0.04 0.05 0.04 0.04 0.05 0.06 0.07 0.09 0.09 0.07 0.05 0.04 0.03 0.03 0.03 0.03 0.03 0.03 0.03 0.03 0.02 0.02
0.01 0.02 0.02 0.01 0.01 0.01 0.01 0.01 0.01 0.01 0.02 0.02 0.02 0.04 0.06 0.06 0.05 0.05 0.06 0.05 0.04 0.04 0.04 0.04 0.04 0.04 0.05 0.05 0.04 0.05 0.07 0.10 0.07 0.05 0.04 0.03 0.04 0.04 0.04 0.03 0.03 0.03 0.03 0.02
0.02 0.02 0.02 0.01 0.01 0.01 0.01 0.01 0.01 0.00 0.00 0.01 0.01 0.02 0.03 0.04 0.03 0.03 0.04 0.04 0.04 0.04 0.04 0.03 0.03 0.04 0.05 0.04 0.02 0.02 0.03 0.07 0.09 0.08 0.05 0.03 0.03 0.04 0.03 0.03 0.02 0.02 0.02 0.02
MSLP
1008.40 1009.26 1009.93 1010.37 1010.59 1010.63 1010.55 1010.39 1010.18 1009.95 1009.66 1009.31 1008.87 1008.34 1007.73 1007.11 1006.53 1006.08 1005.82 1005.80 1006.01 1006.43 1006.97 1007.54 1008.04 1008.41 1008.62 1008.66 1008.59 1008.49 1008.43 1008.49 1008.71 1009.09 1009.59 1010.13 1010.62 1011.00 1011.20 1011.21 1011.06 1010.82 1010.58 1010.43
1008.82 1009.53 1010.05 1010.37 1010.52 1010.56 1010.53 1010.48 1010.41 1010.32 1010.16 1009.90 1009.49 1008.93 1008.26 1007.54 1006.85 1006.31 1005.98 1005.92 1006.13 1006.57 1007.15 1007.76 1008.30 1008.68 1008.88 1008.91 1008.81 1008.68 1008.61 1008.67 1008.92 1009.33 1009.89 1010.50 1011.08 1011.55 1011.85 1011.98 1011.96 1011.86 1011.75 1011.71
1008.99 1009.51 1009.86 1010.05 1010.15 1010.20 1010.26 1010.36 1010.48 1010.57 1010.56 1010.40 1010.03 1009.45 1008.70 1007.86 1007.05 1006.39 1005.96 1005.84 1006.03 1006.48 1007.09 1007.75 1008.34 1008.77 1009.00 1009.06 1008.98 1008.86 1008.80 1008.88 1009.14 1009.59 1010.18 1010.83 1011.48 1012.02 1012.42 1012.66 1012.77 1012.80 1012.82 1012.91
1008.94 1009.25 1009.41 1009.48 1009.54 1009.64 1009.84 1010.12 1010.45 1010.75 1010.91 1010.85 1010.52 1009.91 1009.07 1008.09 1007.12 1006.30 1005.75 1005.53 1005.67 1006.10 1006.74 1007.46 1008.11 1008.63 1008.94 1009.07 1009.06 1009.00 1008.98 1009.09 1009.38 1009.85 1010.45 1011.13 1011.81 1012.41 1012.88 1013.22 1013.44 1013.59 1013.73 1013.92
1008.75 1008.82 1008.81 1008.79 1008.84 1009.02 1009.37 1009.86 1010.41 1010.91 1011.24 1011.28 1010.98 1010.32 1009.37 1008.24 1007.09 1006.09 1005.38 1005.04 1005.09 1005.49 1006.14 1006.91 1007.65 1008.27 1008.70 1008.95 1009.05 1009.08 1009.14 1009.30 1009.62 1010.10 1010.71 1011.40 1012.08 1012.71 1013.23 1013.63 1013.94 1014.20 1014.45 1014.73
1008.51 1008.38 1008.22 1008.13 1008.19 1008.47 1008.98 1009.67 1010.43 1011.12 1011.59 1011.72 1011.43 1010.71 1009.64 1008.34 1007.01 1005.82 1004.93 1004.45 1004.40 1004.75 1005.39 1006.20 1007.03 1007.76 1008.33 1008.71 1008.94 1009.10 1009.25 1009.48 1009.84 1010.34 1010.95 1011.62 1012.30 1012.93 1013.48 1013.93 1014.31 1014.64 1014.97 1015.32
1008.36 1008.06 1007.78 1007.65 1007.74 1008.12 1008.77 1009.63 1010.56 1011.40 1011.98 1012.15 1011.85 1011.07 1009.88 1008.43 1006.93 1005.56 1004.51 1003.88 1003.73 1004.01 1004.63 1005.46 1006.36 1007.19 1007.89 1008.41 1008.79 1009.07 1009.33 1009.64 1010.04 1010.55 1011.15 1011.81 1012.48 1013.11 1013.66 1014.14 1014.56 1014.95 1015.33 1015.73
1008.37 1007.95 1007.61 1007.46 1007.59 1008.04 1008.80 1009.77 1010.81 1011.72 1012.35 1012.54 1012.21 1011.37 1010.09 1008.53 1006.90 1005.40 1004.21 1003.47 1003.21 1003.41 1004.00 1004.83 1005.76 1006.66 1007.46 1008.10 1008.60 1009.00 1009.36 1009.74 1010.19 1010.72 1011.33 1011.97 1012.62 1013.24 1013.80 1014.30 1014.74 1015.16 1015.58 1016.01
1008.60 1008.12 1007.75 1007.60 1007.76 1008.25 1009.05 1010.06 1011.11 1012.03 1012.64 1012.81 1012.44 1011.55 1010.23 1008.61 1006.92 1005.36 1004.10 1003.27 1002.93 1003.07 1003.59 1004.39 1005.31 1006.24 1007.09 1007.81 1008.41 1008.90 1009.34 1009.79 1010.28 1010.84 1011.45 1012.09 1012.73 1013.34 1013.91 1014.41 1014.88 1015.32 1015.75 1016.20
1009.04 1008.55 1008.19 1008.05 1008.22 1008.70 1009.46 1010.41 1011.40 1012.24 1012.78 1012.88 1012.47 1011.57 1010.25 1008.65 1006.98 1005.43 1004.17 1003.32 1002.93 1003.00 1003.45 1004.18 1005.05 1005.96 1006.81 1007.56 1008.20 1008.75 1009.25 1009.76 1010.29 1010.87 1011.50 1012.14 1012.79 1013.40 1013.98 1014.50 1014.98 1015.43 1015.87 1016.32
1009.62 1009.18 1008.85 1008.72 1008.86 1009.28 1009.94 1010.75 1011.58 1012.27 1012.68 1012.69 1012.25 1011.36 1010.10 1008.60 1007.04 1005.58 1004.39 1003.57 1003.16 1003.17 1003.54 1004.17 1004.95 1005.77 1006.57 1007.30 1007.94 1008.52 1009.07 1009.61 1010.18 1010.80 1011.44 1012.11 1012.77 1013.40 1013.99 1014.52 1015.02 1015.48 1015.93 1016.37
1010.26 1009.89 1009.61 1009.48 1009.57 1009.87 1010.36 1010.97 1011.58 1012.06 1012.31 1012.22 1011.74 1010.90 1009.76 1008.41 1007.02 1005.73 1004.66 1003.91 1003.51 1003.47 1003.75 1004.25 1004.90 1005.61 1006.31 1006.98 1007.60 1008.18 1008.75 1009.33 1009.94 1010.59 1011.26 1011.96 1012.64 1013.29 1013.90 1014.46 1014.97 1015.45 1015.90 1016.34
1010.86 1010.58 1010.34 1010.21 1010.22 1010.38 1010.66 1011.03 1011.38 1011.63 1011.69 1011.49 1011.00 1010.23 1009.23 1008.08 1006.90 1005.80 1004.89 1004.23 1003.85 1003.77 1003.94 1004.31 1004.81 1005.37 1005.96 1006.55 1007.12 1007.70 1008.28 1008.89 1009.54 1010.23 1010.95 1011.67 1012.38 1013.06 1013.69 1014.27 1014.80 1015.29 1015.75 1016.19
1011.36 1011.17 1010.97 1010.82 1010.74 1010.74 1010.80 1010.91 1011.00 1011.02 1010.90 1010.60 1010.10 1009.41 1008.56 1007.61 1006.65 1005.76 1005.00 1004.43 1004.08 1003.94 1004.00 1004.22 1004.57 1004.99 1005.46 1005.96 1006.50 1007.06 1007.67 1008.31 1009.01 1009.74 1010.49 1011.25 1011.98 1012.68 1013.33 1013.93 1014.48 1014.99 1015.46 1015.91
1011.76 1011.63 1011.46 1011.28 1011.11 1010.95 1010.80 1010.67 1010.52 1010.32 1010.04 1009.65 1009.15 1008.54 1007.84 1007.08 1006.31 1005.59 1004.96 1004.46 1004.11 1003.91 1003.86 1003.94 1004.14 1004.42 1004.79 1005.23 1005.73 1006.30 1006.93 1007.63 1008.37 1009.14 1009.93 1010.71 1011.47 1012.18 1012.85 1013.46 1014.02 1014.55 1015.04 1015.50
1012.07 1011.98 1011.82 1011.60 1011.34 1011.04 1010.72 1010.38 1010.03 1009.65 1009.24 1008.78 1008.28 1007.74 1007.15 1006.53 1005.92 1005.33 1004.79 1004.32 1003.94 1003.67 1003.51 1003.46 1003.53 1003.71 1003.99 1004.39 1004.88 1005.47 1006.15 1006.89 1007.68 1008.49 1009.31 1010.11 1010.87 1011.59 1012.26 1012.88 1013.46 1014.00 1014.51 1015.00
1012.38 1012.29 1012.11 1011.84 1011.50 1011.09 1010.63 1010.13 1009.63 1009.11 1008.61 1008.10 1007.60 1007.10 1006.59 1006.07 1005.55 1005.03 1004.53 1004.06 1003.63 1003.28 1003.01 1002.85 1002.81 1002.91 1003.15 1003.52 1004.03 1004.65 1005.37 1006.16 1007.00 1007.84 1008.67 1009.48 1010.24 1010.95 1011.62 1012.24 1012.83 1013.39 1013.92 1014.44
1012.74 1012.61 1012.39 1012.07 1011.65 1011.15 1010.59 1009.99 1009.38 1008.78 1008.21 1007.67 1007.17 1006.68 1006.22 1005.74 1005.26 1004.76 1004.25 1003.74 1003.25 1002.81 1002.45 1002.20 1002.09 1002.14 1002.35 1002.73 1003.26 1003.92 1004.69 1005.52 1006.37 1007.23 1008.07 1008.86 1009.61 1010.31 1010.96 1011.58 1012.18 1012.76 1013.32 1013.86
1013.19 1012.99 1012.71 1012.33 1011.85 1011.28 1010.65 1009.98 1009.31 1008.67 1008.06 1007.50 1006.98 1006.50 1006.04 1005.57 1005.08 1004.56 1004.02 1003.46 1002.90 1002.39 1001.96 1001.65 1001.49 1001.51 1001.71 1002.10 1002.66 1003.35 1004.14 1004.99 1005.85 1006.71 1007.52 1008.29 1009.01 1009.68 1010.32 1010.94 1011.54 1012.14 1012.73 1013.30
1013.71 1013.43 1013.07 1012.61 1012.07 1011.45 1010.77 1010.07 1009.38 1008.71 1008.08 1007.50 1006.98 1006.48 1006.00 1005.52 1005.00 1004.45 1003.86 1003.25 1002.64 1002.08 1001.61 1001.26 1001.09 1001.10 1001.31 1001.71 1002.28 1002.98 1003.77 1004.60 1005.45 1006.27 1007.04 1007.77 1008.45 1009.09 1009.71 1010.32 1010.93 1011.55 1012.16 1012.77
1014.25 1013.87 1013.41 1012.88 1012.27 1011.61 1010.91 1010.19 1009.48 1008.80 1008.17 1007.59 1007.05 1006.54 1006.04 1005.52 1004.98 1004.40 1003.78 1003.14 1002.51 1001.94 1001.46 1001.11 1000.94 1000.96 1001.17 1001.58 1002.14 1002.82 1003.58 1004.37 1005.16 1005.92 1006.63 1007.30 1007.93 1008.53 1009.13 1009.73 1010.35 1010.98 1011.61 1012.25
1014.67 1014.19 1013.64 1013.03 1012.37 1011.67 1010.95 1010.22 1009.51 1008.84 1008.20 1007.62 1007.07 1006.55 1006.03 1005.51 1004.95 1004.36 1003.75 1003.12 1002.52 1001.97 1001.52 1001.21 1001.06 1001.10 1001.32 1001.70 1002.23 1002.87 1003.56 1004.28 1004.99 1005.66 1006.29 1006.89 1007.45 1008.01 1008.57 1009.16 1009.77 1010.41 1011.06 1011.72
1014.86 1014.28 1013.65 1012.97 1012.27 1011.54 1010.80 1010.07 1009.37 1008.70 1008.08 1007.49 1006.95 1006.42 1005.91 1005.39 1004.86 1004.30 1003.73 1003.16 1002.63 1002.15 1001.77 1001.53 1001.43 1001.49 1001.71 1002.08 1002.56 1003.12 1003.72 1004.34 1004.94 1005.51 1006.04 1006.55 1007.04 1007.54 1008.06 1008.61 1009.21 1009.84 1010.50 1011.17
1014.69 1014.04 1013.35 1012.63 1011.89 1011.14 1010.40 1009.68 1008.99 1008.33 1007.72 1007.15 1006.62 1006.11 1005.63 1005.15 1004.67 1004.18 1003.70 1003.24 1002.82 1002.46 1002.19 1002.04 1002.01 1002.11 1002.34 1002.67 1003.09 1003.57 1004.06 1004.56 1005.04 1005.48 1005.91 1006.31 1006.72 1007.15 1007.61 1008.12 1008.68 1009.29 1009.94 1010.61
1014.13 1013.43 1012.70 1011.95 1011.19 1010.45 1009.72 1009.01 1008.34 1007.71 1007.12 1006.58 1006.08 1005.62 1005.19 1004.78 1004.39 1004.02 1003.67 1003.36 1003.09 1002.88 1002.75 1002.71 1002.77 1002.92 1003.16 1003.47 1003.82 1004.20 1004.59 1004.96 1005.31 1005.63 1005.94 1006.24 1006.55 1006.88 1007.27 1007.71 1008.22 1008.78 1009.40 1010.05
1013.19 1012.46 1011.71 1010.95 1010.21 1009.48 1008.78 1008.11 1007.48 1006.89 1006.35 1005.85 1005.41 1005.01 1004.66 1004.35 1004.08 1003.85 1003.67 1003.53 1003.44 1003.41 1003.43 1003.53 1003.68 1003.89 1004.14 1004.43 1004.73 1005.02 1005.30 1005.56 1005.78 1005.98 1006.17 1006.36 1006.56 1006.80 1007.10 1007.46 1007.88 1008.37 1008.93 1009.53
Thickness
5745 5733 5725 5731 5736 5737 5735 5730 5727 5736 5750 5746 5740 5741 5750 5757 5758 5756 5756 5755 5756 5757 5760 5761 5760 5760 5757 5753 5751 5749 5746 5743 5740 5737 5734 5731 5728 5727 5726 5725 5724 5723 5722 5720
5728 5725 5737 5741 5740 5737 5731 5725 5725 5734 5746 5741 5734 5735 5745 5750 5752 5754 5753 5752 5753 5752 5753 5754 5754 5753 5752 5750 5747 5745 5743 5740 5738 5735 5733 5731 5728 5725 5724 5722 5721 5720 5718 5717
5724 5732 5743 5738 5734 5729 5726 5722 5725 5726 5734 5736 5730 5725 5733 5743 5747 5749 5750 5750 5750 5750 5749 5748 5748 5747 5746 5744 5743 5742 5740 5738 5736 5733 5729 5727 5724 5721 5718 5718 5716 5716 5715 5714
5724 5734 5737 5733 5731 5729 5720 5734 5732 5728 5716 5707 5718 5698 5721 5730 5734 5739 5742 5744 5744 5745 5744 5743 5743 5742 5741 5740 5739 5738 5736 5735 5733 5731 5726 5724 5721 5718 5717 5716 5714 5713 5712 5710
5723 5732 5731 5728 5733 5733 5730 5738 5730 5724 5712 5702 5707 5697 5706 5721 5724 5732 5737 5738 5740 5740 5739 5738 5738 5738 5737 5736 5734 5733 5731 5730 5728 5726 5724 5721 5718 5716 5715 5714 5711 5710 5708 5707
5727 5737 5737 5736 5741 5739 5736 5726 5715 5703 5695 5685 5698 5691 5696 5710 5721 5728 5732 5734 5734 5735 5735 5734 5734 5733 5731 5730 5729 5728 5725 5724 5724 5723 5720 5718 5716 5714 5711 5710 5708 5706 5704 5704
5716 5726 5735 5740 5731 5731 5724 5702 5681 5680 5670 5676 5694 5690 5695 5717 5725 5727 5727 5728 5729 5729 5728 5728 5728 5727 5725 5724 5723 5722 5720 5719 5719 5718 5717 5716 5714 5712 5710 5708 5705 5703 5701 5700
5697 5699 5724 5731 5727 5718 5713 5702 5677 5668 5665 5673 5687 5684 5701 5718 5723 5725 5725 5724 5724 5723 5723 5723 5723 5722 5720 5719 5718 5717 5716 5715 5715 5714 5713 5712 5711 5709 5707 5705 5703 5701 5699 5697
5690 5695 5722 5729 5731 5723 5706 5695 5697 5677 5671 5665 5673 5685 5701 5712 5713 5715 5715 5716 5716 5716 5717 5718 5717 5716 5714 5713 5712 5712 5711 5710 5710 5710 5709 5708 5706 5704 5702 5701 5699 5697 5695 5694
5700 5692 5709 5719 5722 5716 5711 5697 5679 5668 5656 5655 5668 5674 5681 5696 5700 5704 5704 5705 5708 5709 5710 5710 5710 5710 5709 5708 5707 5707 5707 5706 5705 5705 5704 5703 5701 5699 5697 5695 5693 5692 5690 5689
5698 5685 5692 5700 5699 5697 5694 5687 5675 5662 5660 5651 5651 5665 5693 5694 5697 5698 5699 5702 5702 5702 5703 5703 5703 5703 5703 5703 5702 5701 5701 5700 5700 5699 5698 5697 5695 5693 5691 5689 5688 5687 5685 5684
5689 5676 5671 5684 5697 5701 5694 5683 5671 5662 5657 5652 5650 5662 5694 5693 5695 5694 5695 5696 5697 5696 5696 5696 5696 5696 5696 5696 5696 5696 5696 5695 5694 5694 5693 5691 5689 5687 5685 5683 5682 5682 5680 5679
5684 5668 5658 5664 5673 5683 5681 5678 5671 5661 5651 5644 5645 5662 5686 5687 5688 5688 5687 5688 5689 5689 5689 5689 5689 5689 5689 5689 5690 5690 5690 5690 5689 5688 5686 5684 5682 5681 5679 5678 5677 5676 5675 5673
5684 5663 5657 5654 5660 5668 5669 5670 5667 5659 5646 5644 5651 5662 5674 5676 5677 5678 5679 5679 5680 5682 5681 5680 5681 5681 5682 5683 5683 5684 5684 5684 5684 5683 5681 5678 5677 5676 5674 5672 5671 5670 5669 5668
5674 5659 5661 5663 5668 5668 5666 5665 5663 5658 5654 5649 5656 5659 5666 5668 5670 5672 5672 5672 5673 5673 5673 5673 5673 5673 5675 5676 5676 5677 5677 5677 5677 5676 5675 5673 5672 5670 5668 5666 5665 5664 5663 5662
5658 5653 5654 5654 5660 5661 5657 5659 5659 5657 5656 5653 5654 5655 5664 5665 5666 5665 5665 5666 5666 5666 5667 5667 5667 5668 5668 5669 5669 5670 5670 5670 5670 5669 5668 5667 5665 5664 5662 5661 5659 5658 5657 5657
5645 5643 5638 5635 5645 5649 5642 5650 5651 5651 5652 5650 5646 5652 5658 5657 5657 5658 5659 5659 5660 5661 5661 5661 5661 5661 5663 5664 5663 5663 5663 5663 5663 5662 5661 5660 5659 5657 5655 5655 5653 5652 5652 5651
5638 5630 5622 5622 5630 5623 5640 5652 5652 5647 5646 5647 5648 5650 5650 5652 5653 5654 5654 5653 5653 5654 5654 5655 5655 5655 5656 5657 5658 5658 5657 5656 5656 5654 5653 5653 5652 5651 5650 5648 5647 5647 5646 5646
5637 5627 5615 5611 5614 5621 5635 5643 5642 5637 5637 5642 5640 5642 5642 5644 5645 5645 5648 5648 5648 5649 5649 5650 5651 5651 5650 5650 5651 5651 5650 5649 5648 5647 5647 5647 5646 5645 5643 5642 5642 5642 5642 5641
5626 5622 5612 5606 5608 5609 5626 5640 5643 5635 5628 5636 5634 5633 5634 5635 5630 5634 5641 5641 5641 5642 5643 5643 5644 5644 5644 5643 5644 5642 5642 5641 5641 5641 5641 5640 5640 5638 5638 5637 5636 5636 5636 5635
5613 5608 5603 5600 5601 5609 5627 5634 5635 5619 5621 5631 5629 5627 5626 5626 5628 5632 5635 5635 5635 5635 5635 5636 5636 5636 5636 5636 5636 5634 5634 5634 5635 5635 5634 5634 5634 5633 5633 5632 5630 5630 5630 5629
5606 5600 5597 5594 5595 5605 5626 5625 5620 5619 5624 5624 5624 5623 5622 5623 5625 5626 5627 5627 5627 5626 5627 5627 5627 5626 5627 5628 5628 5627 5627 5628 5629 5628 5628 5628 5627 5628 5628 5626 5624 5624 5623 5621
5602 5602 5599 5600 5604 5614 5617 5619 5620 5618 5617 5618 5618 5619 5618 5617 5618 5619 5619 5619 5619 5619 5619 5619 5618 5618 5618 5620 5620 5620 5621 5622 5622 5621 5621 5621 5621 5620 5620 5619 5618 5616 5615 5615
5603 5601 5598 5598 5605 5610 5612 5614 5615 5615 5615 5616 5615 5615 5614 5612 5613 5612 5612 5611 5611 5611 5611 5611 5610 5610 5610 5612 5612 5613 5615 5615 5615 5614 5615 5615 5614 5614 5613 5612 5612 5611 5610 5608
5599 5597 5594 5596 5603 5606 5609 5609 5610 5611 5611 5611 5610 5610 5609 5607 5606 5606 5605 5604 5604 5603 5603 5603 5603 5602 5603 5604 5605 5606 5608 5609 5608 5608 5608 5608 5608 5607 5607 5606 5606 5606 5605 5604
5594 5593 5591 5594 5600 5598 5602 5606 5607 5605 5605 5605 5605 5604 5604 5603 5601 5600 5599 5598 5598 5597 5596 5595 5595 5596 5596 5597 5597 5599 5601 5602 5602 5602 5601 5602 5602 5602 5601 5600 5599 5599 5599 5599